Weather History for KMNM - January, 2013

Change the Weather History Date:

Saturday, January 12, 2013

  Actual Average Record
Temperature  
Mean Temperature 35 °F -  
Max Temperature 46 °F - - ()
Min Temperature 23 °F - - ()
Degree Days  
Heating Degree Days 30    
Moisture  
Dew Point 29 °F    
Average Humidity 75    
Maximum Humidity 100    
Minimum Humidity 60    
Precipitation  
Precipitation 0.00 in - - ()
Sea Level Pressure  
Sea Level Pressure 29.72 in    
Wind  
Wind Speed 12 mph (WSW)    
Max Wind Speed 21 mph    
Max Gust Speed 32 mph    
Visibility 9 miles    
Events      
T = Trace of Precipitation, MM = Missing Value Source: NWS Daily Summary

Daily Weather History Graph

Daily Weather History Graph

Search for Another Location

Airport or City:

Trip Planner

Search our weather history database for the weather conditions in past years. The results will help you decide how hot, cold, wet, or windy it might be!

Date:

Astronomy

Jan. 12, 2013 Rise Set
Actual Time 7:26 AM CST 4:31 PM CST
Civil Twilight 6:53 AM CST 5:04 PM CST
Nautical Twilight 6:17 AM CST 5:41 PM CST
Astronomical Twilight 5:41 AM CST 6:16 PM CST
Moon 7:41 AM CST (1/12) 6:05 PM CST (1/12)
Length of Visible Light 10h 10m
Length of Day
9h 04m
New Moon, 1% of the Moon is Illuminated
Jan 12
New Moon
Jan 18
First Quarter
Jan 26
Full
Feb 3
Last Quarter
Feb 10
New

Hourly Weather History & Observations

Time (CST) Temp. Windchill Dew Point Humidity Pressure Visibility Wind Dir Wind Speed Gust Speed Precip Events Conditions
12:15 AM 44.6 °F 38.1 °F 42.8 °F 93% 29.54 in 4.0 mi SSW 13.8 mph 18.4 mph N/A   Overcast
12:35 AM 44.6 °F 39.2 °F 42.8 °F 93% 29.54 in 4.0 mi SSW 10.4 mph 18.4 mph N/A   Overcast
12:55 AM 44.6 °F 37.8 °F 42.8 °F 93% 29.55 in 4.0 mi SSW 15.0 mph 20.7 mph N/A   Overcast
1:15 AM 44.6 °F 38.1 °F 42.8 °F 93% 29.55 in 5.0 mi SSW 13.8 mph - N/A   Mostly Cloudy
1:35 AM 44.6 °F 38.1 °F 42.8 °F 93% 29.55 in 5.0 mi SW 13.8 mph 20.7 mph N/A   Mostly Cloudy
1:55 AM 42.8 °F 36.6 °F 42.8 °F 100% 29.55 in 5.0 mi SW 11.5 mph 18.4 mph N/A   Overcast
2:15 AM 44.6 °F 38.4 °F 41.0 °F 87% 29.55 in 5.0 mi SW 12.7 mph 18.4 mph N/A   Mostly Cloudy
2:35 AM 42.8 °F 36.6 °F 41.0 °F 93% 29.55 in 5.0 mi SSW 11.5 mph 17.3 mph N/A   Partly Cloudy
2:55 AM 44.6 °F 38.4 °F 42.8 °F 93% 29.54 in 7.0 mi SSW 12.7 mph 18.4 mph N/A   Clear
3:15 AM 41.0 °F 34.3 °F 41.0 °F 100% 29.53 in 8.0 mi SSW 11.5 mph - N/A   Clear
3:35 AM 44.6 °F 38.8 °F 41.0 °F 87% 29.52 in 8.0 mi SSW 11.5 mph - N/A   Clear
3:55 AM 42.8 °F 36.2 °F 41.0 °F 93% 29.52 in 8.0 mi SSW 12.7 mph - N/A   Clear
4:15 AM 42.8 °F 36.2 °F 41.0 °F 93% 29.51 in 10.0 mi SSW 12.7 mph 17.3 mph N/A   Clear
4:35 AM 44.6 °F 37.8 °F 41.0 °F 87% 29.51 in 10.0 mi SW 15.0 mph 20.7 mph N/A   Scattered Clouds
4:55 AM 44.6 °F 37.4 °F 42.8 °F 93% 29.52 in 10.0 mi SW 16.1 mph 23.0 mph N/A   Mostly Cloudy
5:15 AM 46.4 °F 39.2 °F 42.8 °F 87% 29.52 in 10.0 mi SSW 18.4 mph 29.9 mph N/A   Mostly Cloudy
5:35 AM 46.4 °F 39.0 °F 42.8 °F 87% 29.52 in 10.0 mi SW 19.6 mph 26.5 mph N/A   Scattered Clouds
5:55 AM 44.6 °F 37.4 °F 41.0 °F 87% 29.52 in 10.0 mi SW 16.1 mph 23.0 mph N/A   Clear
6:15 AM 46.4 °F 40.4 °F 41.0 °F 81% 29.53 in 10.0 mi SW 13.8 mph 19.6 mph N/A   Clear
6:35 AM 44.6 °F 38.1 °F 41.0 °F 87% 29.53 in 10.0 mi SW 13.8 mph 20.7 mph N/A   Partly Cloudy
6:55 AM 44.6 °F 38.8 °F 41.0 °F 87% 29.54 in 10.0 mi SW 11.5 mph 16.1 mph N/A   Clear
7:15 AM 44.6 °F 39.2 °F 41.0 °F 87% 29.56 in 10.0 mi SW 10.4 mph 20.7 mph N/A   Clear
7:35 AM 46.4 °F 40.1 °F 39.2 °F 76% 29.56 in 10.0 mi SW 15.0 mph 23.0 mph N/A   Mostly Cloudy
7:55 AM 44.6 °F 38.4 °F 39.2 °F 81% 29.57 in 10.0 mi WSW 12.7 mph 25.3 mph N/A   Overcast
8:15 AM 44.6 °F 38.1 °F 37.4 °F 76% 29.58 in 9.0 mi WSW 13.8 mph 23.0 mph N/A   Overcast
8:35 AM 44.6 °F 38.1 °F 37.4 °F 76% 29.58 in 8.0 mi WSW 13.8 mph 21.9 mph N/A   Mostly Cloudy
8:55 AM 42.8 °F 35.1 °F 33.8 °F 70% 29.60 in 9.0 mi WSW 16.1 mph 27.6 mph N/A   Clear
9:15 AM 42.8 °F 35.4 °F 33.8 °F 70% 29.61 in 10.0 mi West 15.0 mph 26.5 mph N/A   Clear
9:35 AM 42.8 °F 34.3 °F 32.0 °F 66% 29.63 in 10.0 mi WSW 19.6 mph 32.2 mph N/A   Mostly Cloudy
9:55 AM 41.0 °F 31.6 °F 30.2 °F 65% 29.65 in 10.0 mi WSW 20.7 mph 31.1 mph N/A   Overcast
10:15 AM 39.2 °F 30.5 °F 28.4 °F 65% 29.67 in 10.0 mi WSW 16.1 mph 25.3 mph N/A   Overcast
10:35 AM 37.4 °F 28.9 °F 28.4 °F 70% 29.67 in 10.0 mi WSW 13.8 mph 24.2 mph N/A   Overcast
10:55 AM 39.2 °F 30.2 °F 30.2 °F 70% 29.68 in 10.0 mi West 17.3 mph 27.6 mph N/A   Mostly Cloudy
11:15 AM 37.4 °F 28.9 °F 26.6 °F 65% 29.69 in 10.0 mi West 13.8 mph 28.8 mph N/A   Mostly Cloudy
11:55 AM 35.6 °F 25.2 °F 26.6 °F 70% 29.72 in 10.0 mi West 18.4 mph 26.5 mph N/A   Overcast
12:15 PM 35.6 °F 25.9 °F 24.8 °F 65% 29.72 in 10.0 mi West 16.1 mph 26.5 mph N/A   Mostly Cloudy
12:35 PM 35.6 °F 27.1 °F 24.8 °F 65% 29.73 in 10.0 mi West 12.7 mph 24.2 mph N/A   Partly Cloudy
12:55 PM 35.6 °F 27.5 °F 24.8 °F 65% 29.74 in 10.0 mi West 11.5 mph 24.2 mph N/A   Scattered Clouds
1:35 PM 35.6 °F 26.2 °F 24.8 °F 65% 29.77 in 10.0 mi West 15.0 mph 21.9 mph N/A   Scattered Clouds
1:55 PM 35.6 °F 26.2 °F 23.0 °F 60% 29.78 in 10.0 mi West 15.0 mph 21.9 mph N/A   Partly Cloudy
2:15 PM 33.8 °F 24.8 °F 24.8 °F 70% 29.81 in 10.0 mi WSW 12.7 mph 17.3 mph N/A   Partly Cloudy
2:35 PM 33.8 °F 26.4 °F 23.0 °F 65% 29.82 in 10.0 mi WSW 9.2 mph - N/A   Clear
2:55 PM 33.8 °F 27.0 °F 21.2 °F 60% 29.83 in 10.0 mi West 8.1 mph - N/A   Partly Cloudy
3:15 PM 33.8 °F 25.3 °F 21.2 °F 60% 29.84 in 10.0 mi WSW 11.5 mph - N/A   Clear
3:35 PM 33.8 °F 25.3 °F 21.2 °F 60% 29.84 in 10.0 mi WSW 11.5 mph 16.1 mph N/A   Clear
3:55 PM 32.0 °F 24.2 °F 21.2 °F 64% 29.84 in 10.0 mi WSW 9.2 mph - N/A   Mostly Cloudy
4:15 PM 30.2 °F 21.3 °F 21.2 °F 69% 29.85 in 10.0 mi WSW 10.4 mph - N/A   Mostly Cloudy
4:35 PM 30.2 °F 23.4 °F 19.4 °F 64% 29.86 in 10.0 mi WSW 6.9 mph 18.4 mph N/A   Scattered Clouds
4:55 PM 30.2 °F 21.9 °F 19.4 °F 64% 29.87 in 10.0 mi WSW 9.2 mph 17.3 mph N/A   Scattered Clouds
5:15 PM 30.2 °F 23.4 °F 19.4 °F 64% 29.88 in 10.0 mi West 6.9 mph - N/A   Partly Cloudy
5:35 PM 30.2 °F 21.3 °F 19.4 °F 64% 29.89 in 10.0 mi WSW 10.4 mph - N/A   Clear
5:55 PM 28.4 °F 20.4 °F 19.4 °F 69% 29.90 in 10.0 mi West 8.1 mph 18.4 mph N/A   Clear
6:15 PM 28.4 °F 19.7 °F 19.4 °F 69% 29.90 in 10.0 mi WSW 9.2 mph - N/A   Scattered Clouds
6:35 PM 28.4 °F 19.1 °F 17.6 °F 64% 29.90 in 10.0 mi WSW 10.4 mph 18.4 mph N/A   Partly Cloudy
6:55 PM 28.4 °F 22.2 °F 17.6 °F 64% 29.89 in 10.0 mi West 5.8 mph - N/A   Clear
7:15 PM 28.4 °F 19.7 °F 17.6 °F 64% 29.90 in 10.0 mi West 9.2 mph - N/A   Clear
7:35 PM 26.6 °F 20.0 °F 17.6 °F 69% 29.89 in 10.0 mi West 5.8 mph - N/A   Clear
7:55 PM 26.6 °F 20.0 °F 17.6 °F 69% 29.91 in 10.0 mi West 5.8 mph - N/A   Clear
8:15 PM 26.6 °F 19.1 °F 17.6 °F 69% 29.92 in 10.0 mi WNW 6.9 mph - N/A   Clear
8:35 PM 26.6 °F 19.1 °F 17.6 °F 69% 29.93 in 10.0 mi West 6.9 mph - N/A   Clear
8:55 PM 26.6 °F 19.1 °F 15.8 °F 64% 29.93 in 10.0 mi NW 6.9 mph - N/A   Partly Cloudy
9:15 PM 24.8 °F 20.5 °F 15.8 °F 69% 29.93 in 10.0 mi WNW 3.5 mph - N/A   Clear
9:35 PM 24.8 °F 16.1 °F 14.0 °F 64% 29.93 in 10.0 mi WNW 8.1 mph - N/A   Clear
9:55 PM 24.8 °F 15.3 °F 15.8 °F 69% 29.95 in 10.0 mi WNW 9.2 mph - N/A   Clear
10:15 PM 24.8 °F 16.9 °F 15.8 °F 69% 29.96 in 10.0 mi West 6.9 mph - N/A   Clear
10:35 PM 24.8 °F 20.5 °F 15.8 °F 69% 29.95 in 10.0 mi West 3.5 mph - N/A   Clear
10:55 PM 24.8 °F 17.9 °F 15.8 °F 69% 29.95 in 10.0 mi WNW 5.8 mph - N/A   Clear
11:15 PM 24.8 °F 19.1 °F 15.8 °F 69% 29.96 in 10.0 mi West 4.6 mph - N/A   Clear
11:35 PM 24.8 °F 17.9 °F 15.8 °F 69% 29.95 in 10.0 mi West 5.8 mph - N/A   Partly Cloudy
11:55 PM 23.0 °F 15.8 °F 14.0 °F 68% 29.92 in 10.0 mi WNW 5.8 mph - N/A   Partly Cloudy